Location: Morrison Observatory
(41.7012°N, 86.2315°W)
Time: 16:17:48
(UTC-04:00)

Daily predictions for brighter satellites

Satellite Brightness Start Highest point End
(mag) Time Altitude Azimuth Time Altitude Azimuth Time Altitude Azimuth
ATLAS 2AS CENTAUR R/B 4.1 20:56:55 10° SSE 21:01:59 19° ESE 21:07:15 10° ENE
Cosmos 1452 Rocket 3.9 20:58:41 10° S 21:03:37 42° ESE 21:08:35 10° NNE
USA 186 2.3 21:03:11 10° SSE 21:06:23 45° ENE 21:09:38 10° N
CZ-2D R/B 3.2 21:03:17 10° SSE 21:07:08 73° ENE 21:11:00 10° N
NOSS 3-1 (A) 3.4 21:02:28 10° SSW 21:08:11 85° ESE 21:14:40 10° NE
Cosmos 407 Rocket 3.6 21:04:07 10° NNW 21:09:30 89° NE 21:14:50 10° SSE
Atlas Centaur 2 3.7 21:04:50 10° WSW 21:12:03 34° S 21:18:20 10° ESE
Cosmos 1190 Rocket 4.2 21:07:01 10° NNW 21:12:17 78° WSW 21:17:34 10° SSE
Okean 2 Rocket 3.1 21:09:07 10° S 21:13:34 71° E 21:18:05 10° NNE
Cosmos 1697 Rocket 3.6 21:09:52 10° SW 21:15:22 56° WNW 21:20:56 10° NNE
Helios 1A 4.3 21:12:24 10° ESE 21:15:46 23° ENE 21:19:10 10° NNE
Cosmos 44 Rocket 3.3 21:11:11 10° NNW 21:15:55 66° NE 21:20:41 10° SE
Cosmos 676 Rocket 4.1 21:23:15 10° NNW 21:28:36 88° ENE 21:33:56 10° SSE
BREEZE-M DEB (TANK) 1.5 21:25:59 10° SW 21:30:14 70° SSE 21:32:21 10° ENE
Resurs 1-3 3.8 21:26:02 10° S 21:30:25 77° WSW 21:34:50 10° NNW
Cosmos 2227 4.2 21:25:01 10° NNW 21:30:41 80° ENE 21:36:22 10° SSE
DELTA 2 R/B (1) 3.9 21:27:09 10° W 21:32:38 55° SSW 21:37:20 14° ESE
SeaSat 1 2.4 21:32:24 10° NNE 21:37:22 78° ESE 21:42:17 10° SSW
Meteor 1-11 Rocket 3.9 21:34:06 10° S 21:39:47 55° E 21:45:23 10° NNE
Spot 2 Rocket 3.9 21:37:34 10° S 21:42:38 66° WSW 21:47:43 10° NNW
Cosmos 1140 Rocket 3.5 21:39:29 10° NNW 21:44:45 85° ENE 21:50:00 10° SSE
Cosmos 1602 3.6 21:41:36 10° S 21:45:26 88° E 21:49:18 10° N
NOSS 2-3 (C) 4.2 21:41:39 10° S 21:45:57 39° ESE 21:50:51 10° NE
SPOT 5 4.5 21:46:37 14° E 21:48:44 19° ENE 21:51:58 10° NNE
Cosmos 1954 Rocket 4.3 21:45:38 10° NNW 21:50:56 72° WSW 21:56:14 10° S
Cosmos 614 Rocket 3.9 21:47:39 10° NNW 21:52:47 86° ENE 21:57:22 13° SSE
Lacrosse 5 2.7 21:49:04 10° S 21:53:20 28° ESE 21:57:36 10° ENE
S3M 4.0 21:47:34 10° N 21:53:52 87° E 22:00:13 10° S
Cosmos 1553 Rocket 4.0 21:50:47 10° N 21:56:58 82° W 22:03:03 10° S
Resurs 01 Rocket 3.2 21:55:05 10° SSW 21:59:08 34° W 22:03:13 10° NNW
ERBS 3.8 21:56:11 10° WSW 21:59:29 41° NW 22:02:48 10° NNE
Meteor 1-29 3.5 21:56:19 10° NNE 21:59:31 36° E 22:00:42 27° SE
GENESIS II 4.1 21:56:55 10° NNW 22:00:52 77° NE 22:02:55 27° SE
Okean 1 Rocket 3.4 21:58:31 18° SSE 22:01:20 41° E 22:05:27 10° NNE
Cosmos 1939 Rocket 3.1 21:57:26 10° S 22:01:25 70° WSW 22:05:22 10° NNW
H-2A R/B 3.4 22:00:56 18° E 22:02:46 22° ENE 22:06:32 10° NNE
Cosmos 44 3.9 21:58:56 10° NW 22:03:12 48° WSW 22:06:53 14° S
Cosmos 2266 Rocket 3.9 21:58:10 10° S 22:04:06 63° E 22:10:04 10° NNE
Cosmos 1741 Rocket 4.0 21:59:34 10° NNW 22:04:48 69° ENE 22:08:13 22° SSE
Cosmos 1607 4.4 21:58:37 10° NNW 22:04:55 51° NE 22:08:50 23° ESE
Meteor 1-23 Rocket 4.3 22:01:35 10° N 22:07:04 56° ENE 22:10:35 22° SSE
ARGOS 3.8 22:04:28 23° ESE 22:07:05 36° ENE 22:11:57 10° N
Cosmos 2322 Rocket 2.1 22:01:45 10° SSW 22:07:27 81° ESE 22:13:10 10° NNE
Cosmos 1300 Rocket 3.4 22:03:51 10° S 22:08:08 76° E 22:12:28 10° N
Cosmos 2263 Rocket 2.3 22:02:58 10° NNW 22:08:38 61° ENE 22:11:55 25° SE
ERS-1 Rocket 3.2 22:06:15 24° SE 22:09:05 51° ENE 22:13:57 10° N
Tiangong 1 0.7 22:07:14 10° W 22:10:00 74° N 22:10:33 51° ENE
Cosmos 1536 2.7 22:06:33 10° S 22:10:37 79° E 22:14:41 10° N
Envisat 4.0 22:06:53 10° S 22:11:43 45° W 22:16:36 10° NNW
Helios 1B rocket 2.3 22:09:42 10° NNE 22:13:50 78° ESE 22:17:55 10° S
Lacrosse 5 rocket 2.2 22:10:31 10° WNW 22:13:57 36° SW 22:15:50 22° S
Cosmos 1844 Rocket 4.4 22:12:38 10° N 22:16:31 18° NE 22:18:48 15° ENE
SL-16 R/B 2.2 22:11:46 10° SSW 22:17:26 85° WNW 22:23:09 10° NNE
Cosmos 1025 Rocket 3.4 22:14:13 10° N 22:18:18 43° ENE 22:19:22 36° ESE
CZ-4B DEB 2.3 22:18:26 61° SSE 22:18:51 85° E 22:21:45 10° N
ATLAS 3B R/B 3.3 22:14:07 10° NNW 22:20:28 40° NE 22:23:52 24° E
Cosmos 220 Rocket 4.2 22:19:54 10° N 22:24:08 54° ENE 22:25:17 40° ESE
NOSS 2-3 (D) 3.7 22:20:54 10° SSW 22:25:32 83° ESE 22:30:58 10° NE
Cosmos 2322 4.2 22:24:05 30° SE 22:25:44 37° ESE 22:30:53 10° NE
GPS 2-05 Rocket1 4.2 22:24:16 10° WSW 22:26:29 25° SSW 22:26:29 25° SSW
USA 245 4.2 22:27:23 34° SE 22:29:11 49° ENE 22:33:34 10° N
COSMOS 2428 4.1 22:35:04 21° E 22:35:04 21° E 22:37:59 10° NE
YAOGAN 6 4.0 22:32:02 17° SSW 22:34:17 34° W 22:37:33 10° NNW
Abrixas rocket 4.3 22:33:53 10° WNW 22:36:39 24° N 22:38:08 18° NE
Cosmos 1500 4.2 22:40:18 34° ENE 22:40:18 34° ENE 22:43:03 10° NNE
Cosmos 1110 Rocket 3.9 22:37:26 28° S 22:40:03 63° ESE 22:45:11 10° NNE
Cosmos 1932 4.5 22:33:53 10° NNW 22:40:25 77° ENE 22:43:03 38° SE
Cosmos 2360 Rocket 2.1 22:37:59 18° S 22:42:08 63° ESE 22:47:42 10° NNE
MetOp-B 4.0 22:40:46 35° SSE 22:43:07 88° ENE 22:48:30 10° NNW
Meteor 1-5 Rocket 4.2 22:37:54 10° SSW 22:43:14 73° W 22:48:33 10° N
Terra 3.2 22:45:43 24° ENE 22:45:48 24° ENE 22:49:33 10° NNE
ATLAS 2AS CENTAUR R/B 3.0 22:44:12 10° SSW 22:51:54 89° SE 23:00:05 10° NE
SL-08 RB Rocket 3.6 22:51:30 61° SE 22:52:11 74° ENE 22:56:45 10° N
Okean 2 3.2 22:49:50 10° N 22:53:56 85° W 22:54:15 75° SSW
Cosmos 1892 Rocket 4.0 22:50:30 10° N 22:54:33 47° ENE 22:54:33 47° ENE
Cosmos 1331 Rocket 3.8 22:54:04 38° S 22:56:04 78° ESE 23:01:19 10° NNE
SL-8 R/B 4.5 22:51:56 10° WNW 22:56:33 46° NNE 22:58:02 35° ENE
Atlas Centaur 2 3.5 22:54:27 10° WSW 23:00:48 29° SSW 23:01:14 29° S
SPOT 1/Viking Rocket 3.5 23:02:52 61° SE 23:03:40 72° ENE 23:08:54 10° N
Cosmos 1544 Rocket 4.2 23:11:40 46° NE 23:11:40 46° NE 23:15:05 10° NNE
Cosmos 1238 Rocket 4.0 23:05:13 10° N 23:12:01 82° E 23:13:45 53° SSE
Aureole 3 Rocket 4.4 23:10:25 10° N 23:19:21 88° E 23:21:30 50° S
Cosmos 1066 Rocket 3.9 23:14:13 10° N 23:19:39 80° E 23:20:01 75° SE
BREEZE-M DEB (TANK) 4.3 23:16:06 10° W 23:20:09 57° N 23:35:25 10° ENE
Nadezhda 1 Rocket 4.1 23:16:48 10° N 23:23:01 57° E 23:23:30 55° E
Cosmos 1455 Rocket 3.8 23:24:43 46° NNE 23:24:43 46° NNE 23:27:57 10° NNE
Cosmos 1975 3.8 23:26:36 44° N 23:26:36 44° N 23:29:26 10° N
SPOT 5 3.4 23:25:53 49° SW 23:26:27 52° W 23:31:05 10° NNW
Meteor 1-12 Rocket 4.1 23:27:59 76° S 23:28:27 88° E 23:34:07 10° N
Lacrosse 5 2.6 23:31:05 10° WSW 23:36:03 53° NW 23:41:02 10° NE
H-2A R/B 2.6 23:41:34 46° WSW 23:41:53 46° W 23:46:43 10° NNW
NOSS 3-2 (A) 4.1 23:41:28 10° NNW 23:48:57 68° NE 23:50:24 57° ESE
USA 238 DEB 3.7 23:41:58 10° NW 23:49:03 74° WSW 23:49:51 67° SSW
USA 238 3.7 23:42:04 10° NW 23:49:09 74° WSW 23:49:57 67° SSW
Cosmos 2278 Rocket 3.2 23:44:41 10° N 23:49:36 36° NE 23:49:36 36° NE
Cosmos 2263 Rocket 4.1 23:48:08 10° NW 23:52:00 19° W 23:53:39 17° WSW
